DELTA 1 R/B, 3094

Orbit data source: Space-Track

DELTA 1 R/B, 3094 is space debris in LEO originally from a launch on Thu, 11 Jan 1968 UTC launched from the Air Force Western Test Range (AFWTR). Debris objects in space refer to the collection of defunct objects orbiting the Earth. Examples of debris include non-operational satellites, rocket bodies, and fragments generated from explosions, collisions, or faulty payload assembly.

Loading next visibility...
DELTA 1 R/B details
Identifier
3094, 1968-002B
Orbit
LEO
Last TLE update16 hours ago
Origin
Flag of USGSFC (US)
ManufacturerUTC
MissionSpacecraft
Bus & MotorFW4, Unknown motor
Mass~40 kg wet, ~40 kg dry
Launch date (UTC)
1968-01-11 (57 years ago)
Launch vehicleUnknown
Launch site
Air Force Western Test Range (AFWTR)
Object type
Payload
Rocket body
Debris
Shape & HBRCyl, 1.5 m
Radar Cross Section0.687 m², Medium (>0.1 m² and < 1m²)

Expand to show TLE details & history

TLE from 16 hours ago
0 DELTA 1 R/B
1 03094U 68002B   25015.24278685 -.00000032  00000-0  14282-3 0  9993
2 03094 105.7948 128.1211 0313728 169.3339 223.0095 12.85239658673417
Epoch: 2025-01-15T05:49Z
Definitive object data (Epoch: 2025-01-15T05:49:36.783Z)
Latitude28.76795°
Longitude-83.11079°
Altitude1,503.643 km
Speed7.032 km/s
True Right ascension07h 56m 55s
True Declination28° 38' 13"
Sunlit
Object was in full shadow at TLE epoch
Visualization TLE readout
Latitude-73.10863°
Longitude-5.30617°
Altitude1,415.018 km
Speed7.121 km/s
Apparent Right ascension11h 28m 13s
Apparent Declination-59° 11' 21"
Sunlit
Object is in daylight
Visualization observer readout
Local Sidereal Time22:43:04
Azimuth196.591° SSW
Elevation-69.449°
Doppler factor1
Orbital elements
Apogee altitude1,559.71 km
Perigee altitude1,076.795 km
Semi-major axis7,696.389 km
Eccentricity0.0313728
Inclination105.7948°
RAAN128.1211°
Arg. of periapsis169.3339°
True anomaly220.62636°
Mean anomaly223.0095°
Eccentric anomaly221.81113°
Mean motion3.21449 °/min
BSTAR0.00014282
Orbital period111.99 mins
Loading maneuver chart data...
Loading historical data...
Loading historical data...
Loading historical data...
Loading historical data...
Loading historical data...
Loading historical data...
Loading historical data...

DELTA 1 R/B Visibility forecast

Observer location: undefined°, undefined

Span
Click to sort rows by Start time (UTC) header in descending order
Start Az.
Max El. time (UTC)
Max El. Az.
Max El.
End time (UTC)
End Az.
4 mins2025-01-15 23:05:08.434Z336.902° NNW2025-01-15 23:07:08.434Z319.319° NNW11.637°2025-01-15 23:09:08.434Z301.515° NW
14 mins2025-01-16 06:05:08.434Z126.766° SE2025-01-16 06:12:08.434Z53.538° ENE37.326°2025-01-16 06:19:08.434Z348.268° N
13 mins2025-01-16 07:55:08.434Z193.433° SSW2025-01-16 08:01:08.434Z251.829° W33.134°2025-01-16 08:08:08.434Z320.029° NNW
10 mins2025-01-16 19:41:08.434Z48.429° ENE2025-01-16 19:46:08.434Z108.125° ESE27.345°2025-01-16 19:51:08.434Z162.406° S
10 mins2025-01-16 21:31:08.434Z4.018° NNE2025-01-16 21:35:08.434Z312.888° NW35.235°2025-01-16 21:41:08.434Z233.18° WSW
|